Location: Oberwangen
(47.4286°N, 8.9679°E)
Time: 15:25:16
(UTC+00:00)

Resurs 01 Rocket - Pass Details

Date: 20 June 2021
Orbit: 635 x 643 km, 97.9° (Epoch: 02 August)

Event Time Altitude Azimuth Distance (km) Brightness Sun altitude
Rises 20:59:50 0° 203° (SSW) 2,922 4.7 -11.9°
Reaches altitude 10° 21:02:32 10° 220° (SW) 2,019 4.0 -12.1°
Maximum altitude 21:05:46 20° 268° (W) 1,476 3.9 -12.4°
Drops below altitude 10° 21:09:02 10° 316° (NW) 2,031 5.6 -12.7°
Sets 21:11:47 0° 333° (NNW) 2,946 7.1 -13.0°
